Theta_e
283 284 283 284 286 288 285 286 282 283 283 287 289 290 291 292 291 289 289 289 289 288 287 285 282 281 279 278 278 278 277 277 277 278 277 278 278 278 278 278 278 279 279 280
280 284 282 281 284 284 285 286 285 285 285 290 292 292 291 291 289 287 286 287 288 287 288 286 283 282 280 278 278 278 276 276 276 277 277 277 278 277 277 277 278 278 279 279
277 280 281 276 278 282 283 285 287 283 288 291 289 289 288 287 287 286 287 288 287 287 286 286 285 281 278 277 277 276 276 276 276 277 277 277 277 277 277 277 277 277 277 278
273 273 269 280 281 285 284 285 286 286 286 289 290 288 287 288 287 288 287 286 286 284 282 282 279 277 276 276 276 276 275 276 276 276 276 277 278 278 277 277 276 276 276 277
270 262 274 278 280 281 282 282 287 286 288 287 284 282 283 286 286 286 284 285 282 279 277 276 275 275 275 275 275 275 274 274 275 276 276 276 277 276 277 276 276 276 276 276
260 264 265 276 282 284 283 277 285 286 286 284 281 278 283 283 283 284 282 280 278 274 273 272 272 274 274 273 273 273 274 275 275 276 276 276 276 276 277 277 276 276 275 274
263 264 272 280 280 283 273 277 283 283 284 281 280 283 282 283 283 281 280 276 270 269 270 269 270 272 271 271 271 272 274 274 274 275 276 276 276 276 276 276 274 273 272 272
265 266 271 281 279 279 283 281 282 282 282 282 281 281 280 281 281 280 277 273 272 270 269 268 272 273 271 271 272 272 272 274 274 274 275 275 275 275 274 274 272 270 269 269
279 279 282 280 283 284 282 283 281 281 281 281 280 280 281 280 279 279 277 272 270 269 268 268 269 271 270 269 270 271 273 271 272 273 274 275 274 273 272 272 270 269 268 267
278 282 281 281 282 281 282 282 282 281 281 281 281 282 281 280 279 276 273 271 269 268 267 267 267 270 268 270 271 270 270 271 271 271 272 272 273 272 271 269 267 267 266 265
274 278 277 280 282 284 283 282 280 280 281 282 280 280 279 279 277 274 272 268 268 268 267 266 265 266 268 270 270 270 270 270 270 271 271 269 270 269 268 268 268 265 263 264
276 282 280 283 280 282 280 281 282 281 280 278 278 280 276 276 274 272 270 267 267 266 265 265 265 265 268 270 271 270 269 269 270 269 268 268 266 265 272 271 273 272 270 264
277 276 277 278 271 273 280 280 280 279 280 280 273 276 271 271 268 268 266 266 266 266 265 265 265 267 269 270 271 270 270 269 268 267 265 264 264 264 262 262 272 272 272 271
280 276 277 274 282 275 275 278 272 270 270 273 272 267 268 267 263 265 265 265 264 266 266 267 267 267 268 270 270 269 268 267 266 264 262 260 259 257 256 257 255 254 261 265
279 277 283 281 273 272 266 264 269 273 270 266 262 267 266 266 266 266 266 268 268 267 266 266 266 265 266 267 267 266 265 261 259 256 255 255 253 252 251 249 249 248 247 257
279 275 276 276 281 281 271 262 270 275 272 270 268 268 268 269 270 269 268 267 266 265 265 266 266 263 262 264 263 259 257 257 256 254 251 251 252 252 249 249 247 247 246 248
273 279 273 268 275 279 277 277 276 278 273 269 270 269 268 268 267 266 265 266 267 266 265 265 263 260 259 258 259 257 256 255 254 251 252 252 251 252 252 250 250 248 249 248
279 282 281 276 278 279 280 278 275 273 271 270 268 267 266 266 266 264 264 265 264 263 263 261 259 256 254 254 255 255 255 253 251 252 249 249 250 251 250 250 249 248 247 246
262 268 266 264 264 266 267 268 269 268 266 267 266 266 266 266 265 263 262 262 261 260 259 256 263 255 253 252 253 254 253 251 249 245 249 249 248 246 247 248 248 248 247 248
263 261 258 257 256 258 263 262 264 267 266 266 265 264 263 261 261 259 260 260 261 259 257 255 258 255 253 254 257 253 252 252 252 249 248 249 250 249 247 249 248 248 246 246
265 264 261 260 259 256 256 258 259 260 259 261 263 262 262 257 257 258 257 259 258 250 256 256 255 255 253 253 253 252 252 251 251 252 251 251 250 249 249 249 248 249 249 249
262 254 257 256 255 255 253 252 255 255 257 257 256 258 258 256 255 255 254 259 256 253 256 256 256 254 254 256 254 252 252 252 252 250 250 250 250 250 251 250 250 251 251 250
254 252 253 253 255 256 250 251 255 257 258 259 259 259 261 260 258 258 258 257 253 254 256 257 257 256 257 255 254 253 253 252 252 252 252 251 252 251 252 252 252 252 251 251
248 249 251 250 248 250 254 254 252 252 254 254 255 257 258 257 252 252 250 255 255 259 256 256 259 260 257 255 254 253 253 253 253 253 253 253 252 252 252 252 253 252 252 252
251 249 247 248 253 257 254 251 250 249 250 252 253 254 256 255 259 260 252 254 258 258 258 259 261 261 257 255 254 254 254 254 254 253 253 254 254 253 253 253 254 254 253 253
248 253 254 254 256 255 255 253 256 254 252 253 250 251 252 252 252 256 256 254 256 257 257 258 259 260 257 255 255 255 255 254 254 254 254 254 255 255 255 256 256 255 255 255
247 249 247 250 250 250 253 255 255 254 255 256 255 253 253 252 251 253 256 254 254 256 256 256 258 259 258 256 255 255 255 255 255 255 255 256 256 257 257 258 258 257 257 256
Wind_Speed
2 2 2 5 10 15 14 11 9 7 9 8 7 7 8 6 3 5 7 7 8 8 8 8 8 8 6 6 7 6 6 6 5 5 5 5 5 5 5 5 5 5 5 5
3 2 1 4 8 9 10 7 7 3 11 6 7 4 6 7 6 6 7 7 7 4 5 7 8 8 9 10 9 9 7 6 6 6 5 5 5 5 6 5 5 5 7 6
3 4 4 8 8 7 5 5 11 15 16 6 9 9 7 8 7 7 8 7 7 6 5 7 5 8 10 11 10 9 8 7 7 6 6 5 6 6 7 7 6 6 6 7
2 2 5 6 3 5 9 7 11 6 5 10 11 6 6 7 6 8 7 7 5 4 5 6 2 4 8 9 10 10 8 8 7 7 7 7 7 8 7 6 6 7 5 6
6 5 5 5 5 9 9 14 15 13 16 8 2 2 8 7 8 9 5 4 3 2 3 3 3 5 8 8 9 9 8 8 8 8 8 7 8 8 8 8 6 7 6 5
4 6 9 7 6 7 7 9 10 12 12 9 7 3 9 5 5 7 7 4 4 2 1 2 1 6 8 8 9 8 9 9 8 8 8 8 7 7 6 7 7 6 7 5
3 4 9 9 5 5 7 9 6 9 10 9 8 8 5 7 5 4 4 6 3 3 4 4 4 6 6 6 7 8 9 9 7 6 7 8 7 5 6 7 8 7 7 5
4 3 15 9 5 13 8 4 5 7 8 8 8 6 7 8 7 7 8 6 6 5 5 4 5 7 8 8 8 8 9 9 9 8 7 6 8 6 6 8 8 7 5 4
12 11 3 8 9 13 6 7 8 6 6 8 7 6 8 7 9 10 9 6 5 7 6 5 5 6 9 7 9 8 9 8 8 7 7 7 7 7 6 6 6 5 4 3
6 10 10 10 6 5 8 9 6 5 6 8 8 9 9 6 7 6 5 7 5 7 7 7 5 5 5 10 9 10 10 9 8 8 7 6 4 4 5 4 4 4 4 3
7 8 4 6 12 13 12 8 1 2 6 9 7 10 8 7 7 7 7 5 6 8 8 8 7 6 8 10 10 10 9 9 8 6 7 6 4 4 4 2 5 4 2 3
9 11 8 11 8 10 8 8 9 7 8 7 9 11 6 8 6 6 7 6 7 6 6 7 7 7 8 10 11 11 10 8 7 7 6 5 5 3 9 10 11 10 11 6
6 6 6 7 3 5 9 11 11 10 12 12 5 7 5 5 4 5 5 7 9 10 7 9 9 9 9 10 11 11 10 8 7 7 6 6 5 6 5 3 8 7 7 6
7 6 6 6 12 6 8 10 4 3 5 7 5 4 4 5 3 6 8 7 7 9 9 10 10 10 9 10 10 8 8 9 7 6 5 5 5 4 4 5 4 1 3 2
14 9 15 8 2 5 3 4 5 10 6 5 4 6 7 7 6 6 6 7 9 10 9 10 10 9 7 7 9 9 8 5 5 5 4 5 4 4 4 3 3 2 2 1
8 9 9 11 19 17 6 4 9 12 9 6 7 8 7 5 5 6 8 10 11 10 11 11 10 8 7 7 8 6 5 9 7 6 5 4 4 5 4 3 3 3 3 4
4 14 7 7 13 15 14 13 13 13 5 8 11 8 8 8 7 7 7 8 7 9 10 11 10 9 8 6 8 6 6 6 8 5 5 5 5 5 4 4 4 4 4 4
11 16 11 6 7 8 11 10 8 8 9 7 9 10 10 11 11 9 9 8 6 6 7 7 10 10 7 7 7 6 6 6 5 6 4 4 4 4 4 5 5 4 3 3
2 8 5 5 4 4 5 4 7 5 6 9 10 11 10 9 10 10 9 9 8 9 8 7 14 11 9 7 7 6 6 7 5 3 4 4 3 4 4 4 4 4 4 3
6 3 3 5 3 3 5 5 3 5 5 8 7 8 8 6 7 9 9 10 8 4 10 9 11 10 9 9 11 6 6 7 7 4 5 5 5 5 4 5 5 4 4 4
7 5 6 5 4 3 4 4 2 4 3 6 9 9 9 7 7 9 8 8 7 5 9 13 10 8 7 7 8 6 6 6 6 7 7 6 5 4 5 5 5 4 4 4
4 4 6 5 4 3 3 3 1 4 5 5 4 7 9 8 7 5 2 6 6 10 8 8 7 10 9 13 6 7 6 7 6 5 5 5 5 5 5 5 5 5 5 5
4 4 4 5 6 5 1 4 5 6 8 8 9 10 10 8 8 10 9 8 4 10 8 8 10 14 15 9 7 7 8 8 7 7 6 6 6 6 5 6 5 5 5 6
4 5 4 2 3 2 5 4 5 4 4 4 4 5 9 7 1 2 1 10 12 14 8 8 12 16 14 8 7 8 8 8 7 7 6 7 6 5 5 5 6 5 6 6
6 4 4 5 7 7 5 3 2 3 3 4 5 5 6 3 5 7 5 5 11 11 9 12 15 16 9 8 9 8 8 8 8 7 7 7 6 7 6 6 7 7 6 6
5 6 5 8 6 4 4 5 6 4 3 4 3 3 3 2 2 3 7 6 7 8 7 8 9 10 9 9 9 9 8 7 8 8 8 7 7 7 7 8 8 7 8 7
3 4 1 4 5 5 5 6 6 7 7 6 4 5 5 4 3 3 5 6 5 6 6 6 7 9 8 8 8 8 8 7 9 8 7 8 8 8 8 8 8 8 7 7
Wind_Direction
272 208 194 176 178 199 209 207 204 174 200 226 234 219 191 224 253 228 251 263 244 245 244 234 219 209 180 173 168 162 156 150 148 136 130 124 111 97 88 84 80 70 57 35
223 320 89 224 217 207 219 228 257 239 255 217 242 282 248 240 251 269 281 281 296 294 265 235 218 204 185 178 170 161 158 154 144 139 136 131 119 108 96 84 78 68 65 44
243 353 23 278 209 196 188 186 221 230 242 205 226 234 229 248 247 261 271 279 289 288 292 301 257 189 184 168 151 153 150 147 148 141 132 126 119 112 106 98 87 80 59 54
173 48 257 259 335 197 198 202 209 215 203 208 224 218 212 213 220 242 245 260 266 285 309 315 333 127 129 144 150 148 146 148 145 140 135 131 126 120 118 114 109 104 78 62
153 194 298 286 199 165 171 241 219 216 233 230 186 84 274 220 212 227 223 211 223 225 252 296 144 133 130 135 138 140 146 145 144 145 142 140 140 140 139 132 134 123 117 96
106 148 217 236 215 136 97 262 236 200 223 218 134 212 252 218 185 204 199 195 212 141 59 126 117 127 132 145 145 146 147 148 146 146 147 148 145 149 137 140 137 119 106 83
170 209 281 236 189 145 134 234 229 175 210 166 192 214 197 157 189 193 191 179 132 149 183 188 157 135 134 141 159 147 137 136 135 137 142 140 134 142 134 130 119 110 112 92
93 80 261 164 81 170 198 194 186 191 199 196 216 191 195 220 236 212 198 176 172 170 184 180 164 147 153 159 147 140 140 142 140 140 141 141 144 137 132 134 125 124 125 119
185 211 197 203 194 219 160 178 211 195 190 195 211 218 225 220 223 224 205 184 173 171 169 182 178 161 158 159 145 140 140 139 141 136 136 138 140 147 132 130 132 140 150 140
96 242 209 220 246 237 194 220 210 211 175 169 209 230 242 240 229 216 196 195 165 168 173 178 182 163 146 155 149 146 146 144 141 138 134 126 121 128 132 141 126 146 145 145
262 273 7 242 226 230 232 240 151 162 192 222 216 250 226 239 223 206 199 175 172 186 181 181 165 158 153 153 152 150 148 148 147 143 139 128 114 126 137 102 152 145 143 138
225 211 192 246 201 213 215 232 235 228 265 243 188 234 193 224 201 190 196 166 183 181 170 169 162 156 158 160 161 153 153 156 156 145 131 125 127 125 143 155 149 145 148 157
224 191 201 250 200 186 202 228 231 218 224 242 237 213 179 213 201 197 176 174 189 187 165 159 164 164 169 166 163 163 159 152 141 135 144 146 142 150 141 13 142 148 163 179
241 118 293 229 254 178 202 230 189 213 224 218 203 176 179 192 154 193 197 188 153 156 158 166 167 167 168 165 159 148 142 144 148 147 142 130 149 149 128 148 159 251 349 189
243 198 231 258 299 269 185 138 220 236 209 210 200 186 183 191 208 208 160 153 153 157 159 162 166 164 156 145 142 143 141 141 127 122 127 134 130 133 144 150 177 178 348 288
245 206 232 234 255 262 213 207 231 244 215 198 186 195 187 175 160 152 153 155 156 173 168 167 170 156 145 141 136 126 120 134 134 135 131 131 142 149 155 161 156 181 189 218
266 268 234 249 236 252 235 237 230 249 204 185 197 156 149 148 143 156 164 169 163 163 167 166 157 145 144 147 147 144 140 135 137 120 153 161 162 172 170 167 185 198 214 208
239 257 271 246 257 244 249 229 223 220 209 189 144 154 158 171 181 172 167 154 132 135 160 143 143 142 141 149 144 145 146 146 149 160 145 158 177 169 176 185 189 195 225 254
215 268 298 264 261 256 268 229 208 203 155 154 157 181 179 176 167 167 154 158 163 168 193 153 160 147 155 164 146 142 145 147 152 148 159 154 160 181 183 185 195 209 206 220
274 260 291 278 287 229 263 263 200 176 165 158 149 151 165 155 147 149 162 179 188 181 142 164 152 160 159 175 153 151 152 162 169 164 164 182 185 190 193 200 205 209 207 215
258 252 257 263 272 300 290 287 185 179 166 147 164 175 170 152 154 151 157 184 202 175 156 162 161 163 161 160 152 158 163 165 170 180 187 191 187 194 201 207 207 207 215 212
231 227 237 232 231 249 259 293 170 132 156 146 134 138 146 163 156 171 250 195 154 157 159 171 172 164 164 164 159 166 174 182 187 169 186 187 191 197 210 203 211 213 218 219
217 218 218 203 214 246 238 208 209 189 189 183 179 178 183 175 173 167 203 196 171 170 169 175 174 168 164 168 171 179 187 189 189 196 198 192 198 201 206 210 214 211 216 223
218 215 223 233 135 111 240 239 218 220 200 185 186 174 158 153 267 241 299 157 164 176 179 172 177 174 164 171 178 188 192 194 197 198 196 193 199 199 207 209 220 213 222 223
202 211 176 182 205 227 196 202 167 223 209 209 203 195 187 193 177 183 172 177 174 177 179 180 181 177 174 181 187 192 194 197 200 191 194 201 203 206 214 211 219 220 222 221
185 219 213 216 230 197 186 160 207 193 175 216 243 217 212 201 163 147 169 168 176 177 176 174 179 179 185 187 190 192 195 194 193 201 198 205 207 211 215 218 220 219 222 224
229 197 209 265 236 220 188 193 194 209 199 201 215 178 193 176 170 154 159 161 176 179 172 180 182 190 185 187 191 194 197 199 198 199 201 208 212 218 218 221 223 221 220 219